[[{"header":{"parameterUnit":"m.s-1","parameterCategory":1,"la1":30.2991,"la2":30.254,"lo1":-89.0895,"lo2":-89.0444,"dy":0.0017,"dx":0.0017,"nx":28,"ny":28,"refTime":"2025-09-05T09:00:00:Z","depth":0,"parameterNumber":2,"parameterNumberName":"U-component_of_WINDS"},"data":[0,0,0,0,0,0,0,0,0,0,0,0,0,0,0,0,0,0,0,0,0,0,0,0,0,0,0,0,0,0,0,0,0,0,0,0,0,0,0,0,0,0,0,0,0,0,0,0,0,0,0,0,0,0,0,0,0,0,-0.9227,-0.9228,0,-0.9272,-0.9273,-0.9273,-0.9222,-0.922,-0.9218,-0.9216,-0.9264,-0.9267,-0.9271,0,0,0,0,0,0,0,0,0,0,0,0,0,-0.91,-0.9102,-0.9227,-0.9228,-0.9228,-0.9272,-0.9273,-0.9273,-0.9222,-0.922,-0.9217,-0.9215,-0.9263,-0.9267,-0.9271,0,0,0,0,0,0,0,0,0,0,0,0,0,-0.9151,-0.9103,-0.9227,-0.9208,-0.9207,-0.9272,-0.9273,-0.9273,-0.9223,-0.922,-0.9217,-0.9214,-0.9262,-0.9267,-0.9271,-0.9358,0,0,-0.9286,-0.9288,0,0,0,0,0,0,0,0,-0.9148,-0.9156,-0.921,-0.9209,-0.9208,-0.9238,-0.9245,-0.9302,-0.9223,-0.9217,-0.9216,-0.9213,-0.9258,-0.9263,-0.9278,-0.9361,-0.9363,-0.9286,-0.9289,-0.9291,-0.9292,0,0,0,0,0,0,0,-0.9145,-0.9154,-0.9245,-0.9211,-0.921,-0.9198,-0.9202,-0.9256,-0.9253,-0.9217,-0.9213,-0.9219,-0.9257,-0.9274,-0.9279,-0.9363,-0.9286,-0.929,-0.9293,-0.9295,-0.952,-0.9523,0,0,0,0,0,0,-0.9143,-0.9151,-0.9244,-0.9246,-0.917,-0.9203,-0.9207,-0.9232,-0.9253,-0.9253,-0.9222,-0.9217,-0.9267,-0.9273,-0.928,-0.9384,-0.9291,-0.9295,-0.9298,-0.9517,-0.9521,-0.9524,0,0,0,0,0,0,-0.914,-0.9152,-0.9242,-0.9198,-0.9208,-0.9208,-0.9236,-0.9234,-0.925,-0.9256,-0.9256,-0.9239,-0.9265,-0.9274,-0.9339,-0.9385,-0.9297,-0.9301,-0.9513,-0.9518,-0.9523,-0.9592,0,0,0,0,0,0,-0.9137,-0.9151,-0.9184,-0.9199,-0.9211,-0.93,-0.9239,-0.9237,-0.9258,-0.9252,-0.9272,-0.9273,-0.9263,-0.9333,-0.9344,-0.939,-0.9305,-0.9509,-0.9515,-0.9521,-0.9586,-0.9599,-0.961,0,0,0,0,0,-0.9133,-0.9202,-0.9186,-0.9197,-0.9251,-0.9302,-0.9309,-0.9297,-0.9262,-0.9295,-0.9299,-0.9272,-0.9378,-0.934,-0.9352,-0.94,-0.9506,-0.9514,-0.9521,-0.9581,-0.9597,-0.961,0,0,0,0,0,0,-0.9193,-0.9204,-0.9186,-0.9262,-0.9281,-0.9294,-0.9335,-0.9314,-0.9344,-0.9338,-0.9321,-0.9326,-0.9396,-0.9404,-0.9362,-0.9486,-0.9437,-0.9447,-0.9478,-0.9493,-0.9505,-0.9502,-0.9309,0,0,0,0,0,-0.9215,-0.9255,-0.9262,-0.9329,-0.9339,-0.9336,-0.9357,-0.9346,-0.9366,-0.9374,-0.9383,-0.9404,-0.9442,-0.9468,-0.9503,-0.9586,-0.9591,-0.9626,-0.9638,-0.9647,-0.9657,-0.9703,-0.9719,-0.9548,-0.9548,-0.9548,0,0,-0.9262,-0.9272,-0.9298,-0.9341,-0.9355,-0.9398,-0.9343,-0.939,-0.9422,-0.9382,-0.9444,-0.9451,-0.9474,-0.9549,-0.9583,-0.9558,-0.9705,-0.9657,-0.9665,-0.9669,-0.9712,-0.9728,-0.9742,-0.9553,-0.9552,-0.9551,0,0,-0.9368,-0.9379,-0.9436,-0.9451,-0.9473,-0.947,-0.9483,-0.9499,-0.9502,-0.9564,-0.9535,-0.9573,-0.9638,-0.9656,-0.9674,-0.9786,-0.9763,-0.9798,-0.9862,-0.9906,-0.992,-0.9932,-0.9973,-0.9988,-0.9807,-0.9807,-0.9808,0,-0.9423,-0.9485,-0.9469,-0.9518,-0.9538,-0.9502,-0.9561,-0.9576,-0.9609,-0.9624,-0.9596,-0.9678,-0.969,-0.977,-0.9797,-0.9812,-0.9828,-0.9797,-0.9919,-0.9931,-0.9942,-0.9981,-0.9997,-0.9812,-0.9811,-0.9811,-0.981,0,-0.9553,-0.9596,-0.964,-0.9671,-0.9696,-0.975,-0.9742,-0.9769,-0.9755,-0.9756,-0.982,-0.9834,-0.9872,-0.9889,-0.9876,-0.9967,-0.9951,-0.9921,-0.9872,-0.9963,-0.9999,-1.0014,-0.9818,-0.9816,-0.9815,-0.9814,0,0,-0.97,-0.9721,-0.9737,-0.9751,-0.9772,-0.9806,-0.9858,-0.9894,-0.9919,-0.9942,-0.9986,-1.0042,-1.0015,-1.0035,-1.0024,-1.0063,-1.0153,-1.0028,-1.0028,-1.0052,-1.0255,-1.0278,-1.0296,-1.0137,-1.0139,-1.0142,-1.0253,0,-0.9807,-0.9897,-0.9883,-0.997,-1.0011,-0.9978,-1.0023,-1.0042,-1.0043,-1.0078,-1.008,-1.0121,-1.0081,-1.0093,-1.013,-1.0134,-1.0193,-1.0125,-1.0179,-1.0181,-1.0176,-1.0315,-1.034,-1.0444,-1.0267,-1.027,-1.0271,0,-0.9945,-0.9973,-1.0064,-1.0079,-1.0095,-1.0136,-1.0169,-1.0202,-1.0223,-1.0221,-1.0243,-1.0225,-1.0278,-1.0227,-1.03,-1.0254,-1.0275,-1.0281,-1.0284,-1.029,-1.0233,-1.0326,-1.0477,-1.0494,-1.0294,-1.0292,-1.029,0,-1.0045,-1.0105,-1.0167,-1.018,-1.0199,-1.0229,-1.0238,-1.0255,-1.0278,-1.0306,-1.0321,-1.0355,-1.0375,-1.0402,-1.0394,-1.0357,-1.047,-1.0417,-1.0471,-1.0472,-1.0498,-1.0497,-1.0657,-1.0509,-1.0509,-1.0509,-1.0508,0,-1.0167,-1.0224,-1.0212,-1.0251,-1.0314,-1.0298,-1.0362,-1.0367,-1.0383,-1.0422,-1.0395,-1.0433,-1.0419,-1.0457,-1.0451,-1.0513,-1.0522,-1.0523,-1.0521,-1.0526,-1.0526,-1.0541,-1.0534,-1.0513,-1.0512,-1.0511,-1.051,0,-1.029,-1.0284,-1.035,-1.0361,-1.0366,-1.0412,-1.0423,-1.046,-1.0458,-1.0509,-1.052,-1.0519,-1.0562,-1.0556,-1.0603,-1.0599,-1.0678,-1.0666,-1.0671,-1.0669,-1.0724,-1.0719,-1.09,-1.0923,-1.0759,-1.0761,-1.0762,0,-1.0369,-1.0412,-1.0429,-1.0453,-1.0464,-1.0504,-1.0527,-1.0512,-1.0538,-1.0564,-1.0598,-1.0638,-1.0669,-1.0739,-1.0743,-1.078,-1.077,-1.083,-1.0775,-1.0779,-1.0772,-1.077,-1.0775,-1.0842,-1.0844,-1.0845,-1.0846,0,-1.0511,-1.0505,-1.0539,-1.0572,-1.06,-1.0625,-1.0648,-1.067,-1.0658,-1.0688,-1.0731,-1.0755,-1.0803,-1.0844,-1.0878,-1.0888,-1.0867,-1.0863,-1.0878,-1.0885,-1.0886,-1.0888,-1.0702,-1.086,-1.0858,-1.0858,-1.0857,-1.0856,-1.0615,-1.0652,-1.067,-1.0708,-1.0724,-1.0746,-1.0781,-1.0784,-1.0819,-1.0857,-1.0847,-1.0896,-1.0915,-1.0959,-1.0973,-1.1011,-1.0989,-1.101,-1.1016,-1.1022,-1.1029,-1.0879,-1.1017,-1.1017,-1.1017,-1.1016,-1.1016,0,-1.0757,-1.0766,-1.0801,-1.0834,-1.0865,-1.0839,-1.0863,-1.0891,-1.0934,-1.0954,-1.0985,-1.1035,-1.1074,-1.1081,-1.1118,-1.1148,-1.1139,-1.1159,-1.1157,-1.116,-1.1046,-1.103,-1.1166,-1.1166,-1.1166,-1.1165,-1.1165,-1.1165,-1.0834,-1.0896,-1.0893,-1.0962,-1.0971,-1.1019,-1.1035,-1.1055,-1.1071,-1.1127,-1.1159,-1.1163,-1.1178,-1.1216,-1.1252,-1.1252,-1.1268,-1.1292,-1.129,-1.1183,-1.1168,-1.1154,-1.1139,-1.1295,-1.1296,-1.1401,-1.1402,-1.1403]},{"header":{"parameterUnit":"m.s-1","parameterCategory":1,"la1":30.2991,"la2":30.254,"lo1":-89.0895,"lo2":-89.0444,"dy":0.0017,"dx":0.0017,"nx":28,"ny":28,"refTime":"2025-09-05T09:00:00:Z","depth":0,"parameterNumber":3,"parameterNumberName":"V-component_of_WINDS"},"data":[0,0,0,0,0,0,0,0,0,0,0,0,0,0,0,0,0,0,0,0,0,0,0,0,0,0,0,0,0,0,0,0,0,0,0,0,0,0,0,0,0,0,0,0,0,0,0,0,0,0,0,0,0,0,0,0,0,0,-1.3569,-1.357,0,-1.3608,-1.3608,-1.3608,-1.3609,-1.3609,-1.3608,-1.3608,-1.3647,-1.3649,-1.365,0,0,0,0,0,0,0,0,0,0,0,0,0,-1.3498,-1.35,-1.3569,-1.357,-1.357,-1.3607,-1.3608,-1.3608,-1.3609,-1.3609,-1.3608,-1.3608,-1.3647,-1.3649,-1.365,0,0,0,0,0,0,0,0,0,0,0,0,0,-1.3532,-1.35,-1.3569,-1.3575,-1.3576,-1.3607,-1.3608,-1.3609,-1.3609,-1.3609,-1.3608,-1.3607,-1.3646,-1.3648,-1.3651,-1.3679,0,0,-1.3658,-1.3658,0,0,0,0,0,0,0,0,-1.353,-1.3535,-1.3574,-1.3575,-1.3576,-1.3603,-1.3597,-1.3632,-1.361,-1.3597,-1.3608,-1.3607,-1.3633,-1.3636,-1.3645,-1.3681,-1.3682,-1.3658,-1.3659,-1.366,-1.3661,0,0,0,0,0,0,0,-1.3528,-1.3533,-1.3584,-1.3574,-1.3576,-1.3576,-1.358,-1.3604,-1.3619,-1.3598,-1.3598,-1.3603,-1.3634,-1.3643,-1.3646,-1.3683,-1.3658,-1.366,-1.3661,-1.3662,-1.3744,-1.3745,0,0,0,0,0,0,-1.3524,-1.3531,-1.3583,-1.3586,-1.3551,-1.3578,-1.3583,-1.3595,-1.3618,-1.3621,-1.3603,-1.3602,-1.364,-1.3644,-1.3648,-1.3682,-1.366,-1.3662,-1.3663,-1.3743,-1.3744,-1.3745,0,0,0,0,0,0,-1.3523,-1.3529,-1.3582,-1.3558,-1.3565,-1.358,-1.3594,-1.3596,-1.3605,-1.3622,-1.3625,-1.361,-1.3639,-1.3644,-1.3671,-1.3683,-1.3663,-1.3665,-1.3742,-1.3743,-1.3745,-1.3751,0,0,0,0,0,0,-1.3521,-1.3528,-1.3539,-1.3559,-1.3566,-1.3604,-1.3595,-1.3597,-1.3609,-1.3609,-1.3629,-1.3632,-1.3639,-1.3668,-1.3673,-1.3686,-1.3667,-1.3741,-1.3743,-1.3744,-1.375,-1.3753,-1.3755,0,0,0,0,0,-1.3518,-1.3539,-1.3539,-1.3545,-1.358,-1.3605,-1.3609,-1.3617,-1.361,-1.3621,-1.3632,-1.3631,-1.3681,-1.367,-1.3677,-1.369,-1.374,-1.3742,-1.3744,-1.3749,-1.3752,-1.3755,0,0,0,0,0,0,-1.352,-1.3542,-1.3542,-1.357,-1.3586,-1.3605,-1.3619,-1.362,-1.3638,-1.3636,-1.3645,-1.365,-1.3676,-1.3686,-1.3674,-1.3719,-1.371,-1.3713,-1.3712,-1.3715,-1.3717,-1.3714,-1.3669,0,0,0,0,0,-1.3524,-1.3542,-1.356,-1.3583,-1.3591,-1.3604,-1.3615,-1.3619,-1.3636,-1.3642,-1.3655,-1.3672,-1.3691,-1.3704,-1.3722,-1.3752,-1.3756,-1.3764,-1.3767,-1.3769,-1.3771,-1.3788,-1.3792,-1.3751,-1.3751,-1.3751,0,0,-1.3531,-1.3545,-1.3556,-1.3584,-1.3596,-1.3616,-1.3609,-1.3629,-1.3644,-1.3646,-1.3671,-1.3682,-1.3701,-1.3729,-1.3742,-1.3738,-1.3784,-1.3771,-1.3773,-1.3774,-1.379,-1.3794,-1.3798,-1.3753,-1.3752,-1.3752,0,0,-1.3555,-1.3567,-1.3588,-1.3601,-1.362,-1.3629,-1.3634,-1.3653,-1.366,-1.3687,-1.3688,-1.3706,-1.3739,-1.3753,-1.3764,-1.3794,-1.3794,-1.38,-1.3812,-1.3829,-1.3832,-1.3835,-1.3846,-1.3849,-1.3803,-1.3803,-1.3803,0,-1.3562,-1.359,-1.3599,-1.3619,-1.3631,-1.3634,-1.3655,-1.3668,-1.3692,-1.3701,-1.3696,-1.3738,-1.3751,-1.3783,-1.379,-1.3799,-1.3806,-1.3797,-1.3831,-1.3834,-1.3837,-1.3847,-1.3851,-1.3803,-1.3803,-1.3803,-1.3803,0,-1.3598,-1.3618,-1.3633,-1.3656,-1.367,-1.3691,-1.3703,-1.3716,-1.372,-1.3729,-1.3756,-1.3772,-1.3794,-1.3802,-1.3806,-1.3835,-1.3832,-1.3829,-1.382,-1.3841,-1.3851,-1.3855,-1.3804,-1.3804,-1.3804,-1.3804,0,0,-1.3623,-1.3652,-1.3657,-1.3668,-1.369,-1.3706,-1.3727,-1.3749,-1.376,-1.3778,-1.3796,-1.3825,-1.3822,-1.3835,-1.3841,-1.3855,-1.3878,-1.385,-1.3851,-1.3855,-1.3911,-1.3913,-1.3917,-1.3879,-1.388,-1.388,-1.3909,0,-1.3649,-1.3686,-1.3695,-1.3727,-1.3746,-1.375,-1.3769,-1.3784,-1.3794,-1.3812,-1.3823,-1.3843,-1.3838,-1.3846,-1.386,-1.3872,-1.3889,-1.387,-1.3896,-1.3897,-1.389,-1.3922,-1.3924,-1.3951,-1.3913,-1.3914,-1.3915,0,-1.3683,-1.3702,-1.3736,-1.3756,-1.3765,-1.3781,-1.3802,-1.3819,-1.3838,-1.3844,-1.3859,-1.3863,-1.3886,-1.3877,-1.3909,-1.3895,-1.3907,-1.3914,-1.3915,-1.3918,-1.3906,-1.3925,-1.3959,-1.3963,-1.3921,-1.392,-1.392,0,-1.3698,-1.3731,-1.3756,-1.3765,-1.379,-1.3801,-1.3812,-1.383,-1.3843,-1.3862,-1.387,-1.3891,-1.3903,-1.392,-1.393,-1.3922,-1.3961,-1.3953,-1.3967,-1.3967,-1.3974,-1.3974,-1.4011,-1.3983,-1.3983,-1.3982,-1.3982,0,-1.3725,-1.3746,-1.3763,-1.3778,-1.3802,-1.3812,-1.3835,-1.3846,-1.3862,-1.388,-1.3885,-1.3902,-1.3914,-1.3933,-1.3941,-1.3967,-1.3972,-1.3978,-1.398,-1.3977,-1.3976,-1.3984,-1.3982,-1.3984,-1.3983,-1.3983,-1.3983,0,-1.3744,-1.3756,-1.3784,-1.3805,-1.3811,-1.3828,-1.3846,-1.3861,-1.3872,-1.3894,-1.39,-1.3916,-1.3939,-1.3951,-1.3979,-1.3984,-1.4013,-1.4014,-1.4006,-1.4007,-1.4021,-1.4019,-1.4064,-1.407,-1.4038,-1.4038,-1.4039,0,-1.3761,-1.3777,-1.38,-1.3812,-1.3823,-1.3843,-1.3856,-1.3868,-1.3881,-1.3904,-1.3917,-1.394,-1.3958,-1.3994,-1.4009,-1.403,-1.4032,-1.4046,-1.4035,-1.4032,-1.4032,-1.403,-1.4032,-1.4047,-1.4048,-1.4048,-1.4048,0,-1.3789,-1.3794,-1.3813,-1.3834,-1.385,-1.3867,-1.3884,-1.3894,-1.3908,-1.3924,-1.3947,-1.3961,-1.399,-1.4013,-1.4036,-1.4048,-1.405,-1.4052,-1.4056,-1.4053,-1.4048,-1.4051,-1.4011,-1.405,-1.405,-1.405,-1.405,-1.405,-1.3807,-1.3821,-1.384,-1.3861,-1.3876,-1.3892,-1.3907,-1.392,-1.3939,-1.3963,-1.3969,-1.3993,-1.4013,-1.4044,-1.4056,-1.4076,-1.4073,-1.408,-1.4081,-1.4083,-1.4083,-1.4046,-1.408,-1.408,-1.408,-1.408,-1.408,0,-1.3834,-1.3847,-1.3866,-1.389,-1.3907,-1.3909,-1.3928,-1.3942,-1.3963,-1.3981,-1.4,-1.4027,-1.4049,-1.4066,-1.4089,-1.4101,-1.4103,-1.4107,-1.4106,-1.4108,-1.4084,-1.4078,-1.4105,-1.4105,-1.4105,-1.4105,-1.4105,-1.4105,-1.3851,-1.3876,-1.3884,-1.3916,-1.3929,-1.3953,-1.3964,-1.3979,-1.3993,-1.4023,-1.4041,-1.4052,-1.407,-1.4094,-1.4115,-1.4119,-1.4127,-1.4131,-1.4136,-1.4113,-1.411,-1.4107,-1.4101,-1.4133,-1.4133,-1.4158,-1.4158,-1.4158]}]]